Location: La Jugie
(45.3299°N, 1.9532°E)
Time: 13:52:48
(UTC+00:00)

Daily predictions for brighter satellites

Satellite Brightness Start Highest point End
(mag) Time Altitude Azimuth Time Altitude Azimuth Time Altitude Azimuth
ADEOS Rocket 3.4 18:48:25 10° N 18:54:55 72° WNW 19:00:42 10° SSW
STARLINK-1128 4.3 18:51:28 10° WNW 18:55:31 51° SW 18:59:31 10° SE
SL-16 R/B 3.2 18:50:09 10° SW 18:55:39 52° WNW 19:01:12 10° NNE
CZ-2C R/B 4.0 18:55:18 10° NE 18:58:25 16° E 19:01:32 10° SE
NOSS 3-3 (A) 3.9 18:54:33 10° SSW 19:00:16 64° ESE 19:06:44 10° NE
NOSS 3-3 (C) 3.9 18:54:39 10° SSW 19:00:22 64° ESE 19:06:49 10° NE
STARLINK-1113 4.5 18:56:29 10° WNW 19:00:29 47° SW 19:04:28 10° SSE
Cosmos 2251 Rocket 3.6 18:56:04 10° S 19:01:22 64° ESE 19:06:42 10° NNE
Cosmos 1726 2.9 18:58:24 10° SSE 19:01:45 31° E 19:05:05 10° NNE
ARGOS 3.4 18:58:55 10° SE 19:04:07 51° ENE 19:09:19 10° N
MONITOR-E 4.5 19:03:25 10° SE 19:05:51 34° ENE 19:08:19 10° N
YAOGAN 1 4.3 19:01:55 10° SSW 19:05:54 36° W 19:09:55 10° NNW
Cosmos 2184 Rocket 4.3 19:00:33 10° N 19:06:37 46° ENE 19:12:34 10° SSE
ISS -2.9 19:03:23 10° WNW 19:06:38 46° SW 19:09:52 10° SE
SJ-6B 3.5 19:03:44 10° SE 19:07:35 40° ENE 19:11:28 10° N
BREEZE M DEB (TANK) 4.3 19:08:11 10° SE 19:09:46 13° ESE 19:11:56 10° E
Meteor 2-10 4.4 19:05:19 10° SSE 19:10:31 49° E 19:15:55 10° NNE
Cosmos 1626 Rocket 4.1 19:08:11 10° NNW 19:12:32 63° W 19:16:48 10° S
USA 186 1.9 19:09:15 10° SSE 19:12:33 55° ENE 19:15:43 10° N
Cosmos 1603 3.6 19:12:38 10° SSW 19:18:14 74° ESE 19:23:50 10° NNE
FREGAT/IRIS 2.2 19:16:43 10° SSE 19:19:25 71° ENE 19:22:08 10° N
IRIDIUM 104 4.3 19:14:33 10° N 19:19:46 65° E 19:24:56 10° SSE
Cosmos 2058 Rocket 4.4 19:16:47 10° SE 19:20:07 21° E 19:23:29 10° NE
Ariane Rocket 3.1 19:16:11 10° SSE 19:21:15 84° WSW 19:26:21 10° NNW
Cosmos 1758 4.3 19:17:39 10° SSW 19:21:40 53° WNW 19:25:40 10° N
Cosmos 1602 Rocket 4.1 19:18:48 10° NNW 19:23:12 63° W 19:27:31 10° S
MOS 1 Rocket 4.4 19:19:02 10° NNE 19:23:42 29° E 19:28:23 10° SSE
ATLAS 2AS CENTAUR R/B 3.2 19:16:38 10° NNW 19:24:07 52° NE 19:29:59 15° ESE
Resurs 01 Rocket 2.9 19:21:42 14° ESE 19:24:24 24° ENE 19:27:57 10° NNE
Meteor 1-21 Rocket 4.2 19:20:05 10° N 19:25:40 89° W 19:31:13 10° S
MOS 1 4.3 19:20:01 10° SSE 19:25:41 80° ENE 19:31:22 10° NNW
USA 234 4.0 19:20:24 10° ENE 19:25:57 29° SE 19:31:29 10° S
Meteor 1-16 Rocket 4.2 19:22:38 10° S 19:27:53 58° E 19:33:20 10° NNE
H-2A R/B 4.5 19:21:39 10° WSW 19:28:12 14° SW 19:31:29 10° SSW
Cosmos 2154 Rocket 4.4 19:22:47 10° N 19:28:51 44° ENE 19:34:51 10° SSE
IRIDIUM 114 4.3 19:23:41 10° N 19:28:56 78° E 19:34:09 10° S
Nadezhda 1 Rocket 4.3 19:24:49 10° SSE 19:30:52 47° E 19:36:55 10° NNE
SL-4 R/B 1.7 19:27:36 10° SW 19:30:53 50° SE 19:33:43 13° ENE
Cosmos 1140 Rocket 4.5 19:26:49 10° SSE 19:30:54 24° E 19:34:58 10° NE
Aureole 3 4.2 19:26:57 10° SSW 19:31:31 75° W 19:37:26 10° N
SeaSat 1 4.0 19:27:00 10° NNE 19:31:35 40° NW 19:36:10 10° WSW
Cosmos 1726 Rocket 3.9 19:29:11 10° SSE 19:33:18 41° E 19:37:29 10° NNE
Cosmos 1340 Rocket 3.9 19:32:48 16° SE 19:35:05 26° E 19:38:27 10° NE
ATLAS 5 CENTAUR R/B 2.5 19:33:10 10° SSE 19:36:27 23° ESE 19:39:58 10° ENE
IRIDIUM 103 4.4 19:32:52 10° N 19:38:07 87° W 19:43:20 10° S
Cosmos 1825 Rocket 3.5 19:35:52 10° N 19:40:18 77° E 19:44:39 10° SSE
Cosmos 1328 4.0 19:36:23 10° N 19:40:19 52° ENE 19:43:15 17° SSE
Cosmos 1703 3.2 19:41:47 10° N 19:45:44 63° E 19:48:40 17° SSE
SL-8 R/B 4.2 19:41:31 10° WNW 19:46:09 51° SSW 19:49:10 20° SE
Cosmos 614 Rocket 4.0 19:42:36 10° S 19:47:41 54° ESE 19:52:46 10° NNE
Cosmos 1300 4.3 19:50:48 18° ENE 19:50:48 18° ENE 19:52:44 10° NE
Cosmos 1943 Rocket 3.5 19:45:00 10° NW 19:50:04 37° WSW 19:55:09 10° S
SPOT 3 Rocket 3.5 19:45:41 11° SSE 19:50:44 77° ENE 19:55:58 10° NNW
Abrixas rocket 2.8 19:48:07 10° WNW 19:50:58 43° N 19:52:19 25° ENE
Cosmos 2369 Rocket 3.1 19:46:38 10° NW 19:52:06 48° WSW 19:57:29 10° S
Cosmos 1758 Rocket 3.9 19:48:45 10° NNW 19:53:03 65° W 19:57:19 10° S
Cosmos 2074 Rocket 4.1 19:47:00 10° N 19:53:18 79° W 19:59:35 10° S
COSMOS 2455 3.6 19:47:55 10° NNW 19:53:30 38° NE 19:56:39 23° E
SL-24 R/B 3.7 19:50:17 10° NNE 19:54:28 75° ESE 19:58:14 10° S
Cosmos 1437 3.6 19:52:31 10° NNW 19:55:27 46° W 19:58:05 12° S
Cosmos 921 Rocket 3.8 19:52:22 10° N 19:56:09 32° ENE 19:57:12 28° E
CZ-2C R/B 3.7 19:51:37 10° NNE 19:56:23 81° ESE 20:01:01 10° SSW
Cosmos 1953 3.8 19:53:41 10° SW 19:57:25 38° WNW 20:01:10 10° N
Cosmos 407 Rocket 3.5 19:54:00 10° S 19:59:02 57° ESE 20:04:03 10° NNE
Cosmos 2228 3.0 19:55:19 10° S 19:59:36 87° W 20:03:58 10° N
Cosmos 1953 Rocket 3.5 19:56:10 10° N 20:00:40 85° E 20:04:01 18° S
Cosmos 1606 Rocket 3.7 19:57:48 10° SSW 20:02:13 77° W 20:06:43 10° N
Cosmos 1908 3.1 19:58:57 10° S 20:02:48 87° E 20:06:42 10° N
Cosmos 1818 3.8 20:01:34 10° SW 20:07:00 73° NW 20:12:29 10° NNE
ERS-1 Rocket 4.4 20:07:40 19° ENE 20:08:24 20° ENE 20:11:59 10° NNE
Cosmos 1610 Rocket 4.4 20:03:09 10° N 20:09:22 90° NNE 20:14:59 13° S
SL-08 RB Rocket 4.4 20:06:27 10° S 20:10:52 53° W 20:15:23 10° NNW
Meteor 1-11 4.2 20:09:41 10° N 20:15:30 89° W 20:19:34 20° S
Cosmos 1943 4.1 20:10:55 10° SW 20:16:26 52° WNW 20:22:01 10° NNE
MetOp-B 4.4 20:15:08 34° ESE 20:17:06 51° ENE 20:22:17 10° N
APEX 4.2 20:11:49 10° NNW 20:18:29 87° ENE 20:21:10 33° SSE
Cosmos 1461 3.2 20:14:11 10° NNW 20:18:40 59° NE 20:19:51 44° ESE
Cosmos 1954 Rocket 4.2 20:21:03 38° SE 20:22:13 44° ESE 20:27:10 10° NNE
SAR-Lupe-2 4.3 20:24:05 10° NNE 20:26:38 40° NE 20:26:38 40° NE
H-2A R/B 4.0 20:23:34 10° SSW 20:27:54 26° W 20:32:11 10° NW
Cosmos 1295 Rocket 4.5 20:23:40 10° N 20:30:00 86° W 20:34:10 23° S
Cosmos 1023 Rocket 4.3 20:25:41 10° SSW 20:30:52 81° ESE 20:36:01 10° NNE
STARLINK-1228 4.2 20:29:30 10° NW 20:31:34 32° N 20:31:34 32° N
Resurs 1-3 4.5 20:33:01 21° SSW 20:35:37 46° W 20:39:52 10° NNW
SPOT 5 4.1 20:36:47 23° NE 20:36:47 23° NE 20:39:34 10° NNE
CZ-2C R/B 2.8 20:34:05 10° N 20:39:15 70° WNW 20:44:24 10° SSW
STARLINK-60 4.3 20:38:33 10° WSW 20:40:39 36° WSW 20:40:39 36° WSW
NOSS 3-4 (A) 4.0 20:35:50 10° NW 20:42:51 72° SW 20:46:22 35° SSE
NOSS 3-4 (C) 4.0 20:35:56 10° NW 20:42:58 72° SW 20:46:27 35° SSE
Cosmos 2341 Rocket 4.0 20:37:19 10° N 20:43:45 89° E 20:46:40 35° S
Cosmos 2058 3.9 20:41:27 10° N 20:44:18 33° NE 20:44:18 33° NE
Cosmos 1763 Rocket 4.4 20:44:58 10° N 20:49:35 32° ENE 20:49:35 32° ENE
Terra 3.1 20:55:02 27° NE 20:55:02 27° NE 20:58:18 10° N
Cosmos 2058 Rocket 4.4 20:53:43 11° SW 20:57:50 40° WNW 21:02:06 10° N
Resurs 01 Rocket 2.9 20:59:16 29° SW 21:00:42 37° W 21:04:49 10° NNW
Cosmos 2218 Rocket 3.9 20:55:02 10° N 21:01:16 76° E 21:02:26 60° SSE
Cosmos 1980 Rocket 4.2 20:59:00 10° N 21:02:12 15° NE 21:03:11 15° NE
Cosmos 1892 4.3 20:59:47 10° N 21:01:53 28° NNE 21:01:53 28° NNE
USA 234 3.2 21:02:53 10° NE 21:09:27 87° NW 21:16:00 10° SW
USA 245 4.4 21:08:37 57° SSW 21:09:44 74° WSW 21:16:00 10° NNW
SL-4 R/B 3.5 21:07:18 10° W 21:09:22 28° WNW 21:09:22 28° WNW
Cosmos 1656 4.3 21:05:16 10° NNW 21:10:37 41° NE 21:10:37 41° NE
Iridium 4 Rocket 3.8 21:07:41 10° N 21:10:42 45° N 21:10:42 45° N
Spot 2 Rocket 3.7 21:11:43 57° SW 21:12:22 63° WSW 21:17:27 10° NNW
Cosmos 1140 Rocket 4.4 21:07:23 10° SW 21:12:22 47° WNW 21:17:23 10° N
Cosmos 2181 Rocket 4.0 21:12:14 39° SSW 21:14:41 76° W 21:20:55 10° N
ATLAS 2AS CENTAUR R/B 3.6 21:08:02 10° NW 21:15:00 43° WSW 21:17:27 32° SSW
ATLAS 5 CENTAUR R/B 2.6 21:16:39 10° WSW 21:20:42 44° NW 21:25:15 10° NNE
SL-8 Rocket 4.2 21:15:27 10° NNW 21:21:43 65° W 21:23:20 49° SSW
Cosmos 864 Rocket 4.4 21:19:00 10° N 21:25:14 79° W 21:25:58 69° SSW
Cosmos 1300 4.5 21:25:42 30° WNW 21:25:42 30° WNW 21:28:50 10° NNW
In-Cosmos 22 Rocket 4.5 21:25:53 10° NNW 21:31:41 64° W 21:32:08 62° WSW
Cosmos 2366 rocket 4.1 21:27:15 10° NNW 21:33:20 66° W 21:34:06 61° SW
Meteor 2-12 Rocket 4.3 21:27:27 10° N 21:33:35 83° W 21:33:43 83° WSW
Cosmos 468 Rocket 4.3 21:29:32 10° NNW 21:33:48 61° NNW 21:33:48 61° NNW
COSMOS 2455 3.5 21:33:51 10° NW 21:39:33 45° WSW 21:39:49 45° WSW
Nadezhda 3 Rocket 4.4 21:43:48 52° NE 21:43:48 52° NE 21:48:46 10° NNE
ERS-1 Rocket 3.7 21:47:39 51° WNW 21:47:39 51° WNW 21:51:44 10° NNW
ATLAS CENTAUR R/B 3.9 21:46:24 10° NNW 21:47:36 16° N 21:47:36 16° N
Cosmos 1821 Rocket 4.3 22:09:04 10° N 22:14:33 65° NW 22:14:33 65° NW
Cosmos 1697 Rocket 3.6 22:13:14 10° NNW 22:17:11 46° NNW 22:17:11 46° NNW
CZ-4C R/B 3.3 22:15:10 10° NNW 22:22:03 52° NE 22:22:18 52° NE
Terra 3.8 22:33:54 24° NW 22:33:54 24° NW 22:36:14 10° NNW
SL-16 R/B 4.1 22:28:42 10° N 22:32:21 21° NE 22:32:21 21° NE
Cosmos 2322 Rocket 4.1 22:38:37 10° N 22:42:09 21° NE 22:42:09 21° NE
Cosmos 1980 Rocket 3.5 22:41:37 10° NNW 22:44:56 36° NNW 22:44:56 36° NNW
USA 234 4.3 22:46:03 10° NE 22:52:03 40° NNW 22:58:04 10° W
Mayak 1.8 23:06:29 10° NNW 23:07:09 13° NNW 23:07:09 13° NNW
Cosmos 2082 Rocket 3.9 23:15:18 28° NNE 23:15:18 28° NNE 23:17:55 10° NNE
Cosmos 2344 4.3 23:07:38 10° NW 23:17:21 88° NE 23:18:39 76° SE
Cosmos 1833 Rocket 4.4 23:29:29 29° NNW 23:29:29 29° NNW 23:32:57 10° NNE
